TimePDT,TemperatureF,Dew PointF,Humidity,Sea Level PressureIn,VisibilityMPH,Wind Direction,Wind SpeedMPH,Gust SpeedMPH,PrecipitationIn,Events,Conditions,WindDirDegrees,DateUTC
12:53 AM,54.0,52.0,93,30.08,10.0,WNW,11.5,-,N/A,,Overcast,300,2013-07-20 07:53:00
1:53 AM,54.0,52.0,93,30.08,10.0,NW,9.2,18.4,N/A,,Overcast,310,2013-07-20 08:53:00
2:53 AM,53.1,51.1,93,30.08,10.0,WNW,12.7,-,N/A,,Scattered Clouds,300,2013-07-20 09:53:00
3:00 AM,54.0,51.1,90,30.08,10.0,WNW,12.7,-,N/A,,Mostly Cloudy,300,2013-07-20 10:00:00
3:26 AM,53.1,51.1,93,30.07,10.0,West,11.5,-,N/A,,Scattered Clouds,280,2013-07-20 10:26:00
3:53 AM,53.1,51.1,93,30.07,10.0,WNW,12.7,-,N/A,,Clear,300,2013-07-20 10:53:00
4:31 AM,53.1,51.1,93,30.07,10.0,WNW,13.8,-,N/A,,Scattered Clouds,290,2013-07-20 11:31:00
4:51 AM,53.6,51.8,94,30.07,10.0,WNW,11.5,-,N/A,,Mostly Cloudy,300,2013-07-20 11:51:00
4:53 AM,53.1,51.1,93,30.07,10.0,WNW,12.7,-,N/A,,Mostly Cloudy,290,2013-07-20 11:53:00
5:53 AM,52.0,51.1,97,30.07,10.0,WNW,15.0,20.7,N/A,,Overcast,290,2013-07-20 12:53:00
6:53 AM,53.1,52.0,96,30.09,9.0,WNW,9.2,-,N/A,,Overcast,290,2013-07-20 13:53:00
7:46 AM,55.0,52.0,89,30.09,10.0,WNW,9.2,-,N/A,,Overcast,290,2013-07-20 14:46:00
7:53 AM,55.0,52.0,89,30.09,10.0,WNW,10.4,-,N/A,,Overcast,300,2013-07-20 14:53:00
8:53 AM,55.9,52.0,87,30.10,10.0,NW,6.9,-,N/A,,Overcast,320,2013-07-20 15:53:00
9:53 AM,57.9,53.1,84,30.09,10.0,Variable,5.8,-,N/A,,Overcast,0,2013-07-20 16:53:00
10:53 AM,57.9,53.1,84,30.09,10.0,NW,9.2,-,N/A,,Overcast,310,2013-07-20 17:53:00
11:53 AM,59.0,53.1,81,30.09,10.0,NW,10.4,16.1,N/A,,Overcast,320,2013-07-20 18:53:00
12:53 PM,61.0,53.1,75,30.07,10.0,NNW,10.4,17.3,N/A,,Overcast,330,2013-07-20 19:53:00
1:28 PM,61.0,53.1,75,30.07,10.0,NW,10.4,-,N/A,,Scattered Clouds,320,2013-07-20 20:28:00
1:53 PM,62.1,54.0,75,30.07,10.0,NNW,10.4,-,N/A,,Clear,330,2013-07-20 20:53:00
2:53 PM,63.0,54.0,72,30.06,10.0,NW,12.7,-,N/A,,Clear,310,2013-07-20 21:53:00
3:53 PM,63.0,54.0,72,30.05,10.0,NW,11.5,-,N/A,,Clear,320,2013-07-20 22:53:00
4:53 PM,63.0,54.0,72,30.03,10.0,NW,10.4,-,N/A,,Clear,320,2013-07-20 23:53:00
5:53 PM,60.1,53.1,78,30.01,10.0,NW,13.8,20.7,N/A,,Clear,310,2013-07-21 00:53:00
6:53 PM,59.0,53.1,81,30.01,10.0,WNW,9.2,17.3,N/A,,Clear,300,2013-07-21 01:53:00
7:53 PM,57.0,52.0,83,30.00,10.0,WNW,9.2,-,N/A,,Partly Cloudy,300,2013-07-21 02:53:00
8:10 PM,55.9,52.0,87,30.00,10.0,WNW,12.7,20.7,N/A,,Mostly Cloudy,290,2013-07-21 03:10:00
8:53 PM,55.0,52.0,89,30.00,10.0,WNW,12.7,-,N/A,,Overcast,300,2013-07-21 03:53:00
9:53 PM,54.0,52.0,93,30.00,10.0,WNW,10.4,20.7,N/A,,Overcast,300,2013-07-21 04:53:00
10:53 PM,54.0,52.0,93,29.99,10.0,WNW,12.7,-,N/A,,Mostly Cloudy,300,2013-07-21 05:53:00
11:08 PM,54.0,52.0,93,29.99,10.0,WNW,10.4,-,N/A,,Mostly Cloudy,300,2013-07-21 06:08:00
11:48 PM,53.6,51.8,94,29.99,10.0,WNW,10.4,18.4,N/A,,Mostly Cloudy,300,2013-07-21 06:48:00
11:53 PM,54.0,52.0,93,29.99,10.0,NW,13.8,-,N/A,,Mostly Cloudy,310,2013-07-21 06:53:00